• Join FlightAware (Why Join?)
  • Login
  • US Flag 
07:59PM EST


 

Airport Tracker/Info


-or-


 

Live Flight TrackerFlight Track Log ✈ SWA407 ✈ 06-May-2013 ✈ KSFO - KSAN

Flight Track Log - Related Links

Times and Time Zones

All times are in EDT time to prevent confusion due to time zone crossing. See the SWA407 flight status page for this flight to view local times or setup timezone preferences in your user account.

Time Position Orientation Groundspeed Altitude Reporting Facility
EDT Latitude Longitude Course Direction KTS MPH feet Rate Location/Type
11:27PM 37.6336 -122.4106 297° West 177 204 2,200  Level Oakland Center
11:28PM 37.6500 -122.4500 298° West 209 241 4,200 3,480 Climbing Northern Cal TRACON
11:29PM 37.6833 -122.5167 302° West 280 322 6,900 3,720 Climbing Northern Cal TRACON
11:30PM 37.5558 -122.5833 203° Southwest 318 366 14,400 4,260 Climbing Oakland Center
11:32PM 37.4603 -122.5822 179° South 343 395 18,700 4,080 Climbing Oakland Center
11:33PM 37.3572 -122.5797 179° South 367 422 22,700 3,540 Climbing Oakland Center
11:34PM 37.2478 -122.5772 179° South 386 444 26,000 3,000 Climbing Oakland Center
11:35PM 37.1317 -122.5761 180° South 408 470 28,900 2,580 Climbing Oakland Center
11:36PM 37.0108 -122.5731 179° South 427 491 31,300 2,400 Climbing Oakland Center
11:37PM 36.8853 -122.5533 173° South 451 519 33,800 2,340 Climbing Oakland Center
11:38PM 36.7650 -122.5158 166° South 448 516 36,100 2,160 Climbing Oakland Center
11:39PM 36.6678 -122.4178 141° Southeast 457 526 38,200 1,800 Climbing Oakland Center
11:40PM 36.5756 -122.3111 137° Southeast 455 524 39,800 1,320 Climbing Oakland Center
11:41PM 36.4825 -122.2072 138° Southeast 453 521 41,000 540 Climbing Oakland Center
11:42PM 36.3686 -122.0781 138° Southeast 460 529 41,000  Level Oakland Center
11:43PM 36.2758 -121.9714 137° Southeast 458 527 41,000  Level Oakland Center
11:44PM 36.1808 -121.8636 138° Southeast 461 531 41,000  Level Oakland Center
11:45PM 36.0925 -121.7647 138° Southeast 462 532 41,000  Level Oakland Center
11:46PM 35.9978 -121.6572 137° Southeast 464 534 41,000  Level Oakland Center
11:47PM 35.9019 -121.5508 138° Southeast 465 535 41,000  Level Oakland Center
11:48PM 35.8053 -121.4439 138° Southeast 467 537 41,000  Level Oakland Center
11:49PM 35.6897 -121.3169 138° Southeast 466 536 41,000  Level Oakland Center
11:50PM 35.5944 -121.2092 137° Southeast 466 536 41,000  Level Oakland Center
11:51PM 35.5003 -121.1053 138° Southeast 461 531 41,000  Level Oakland Center
11:52PM 35.4258 -120.9778 126° Southeast 464 534 41,000  Level Oakland Center
11:53PM 35.3519 -120.8500 125° Southeast 462 532 41,000  Level Oakland Center
11:54PM 35.2617 -120.6914 125° Southeast 463 533 41,000  Level Los Angeles Center
11:55PM 35.1875 -120.5611 125° Southeast 464 534 41,000  Level Los Angeles Center
11:56PM 35.1131 -120.4306 125° Southeast 465 535 41,000  Level Los Angeles Center
11:57PM 35.0383 -120.2994 125° Southeast 467 537 41,000  Level Los Angeles Center
11:58PM 34.9633 -120.1692 125° Southeast 467 537 41,000  Level Los Angeles Center
11:59PM 34.8819 -120.0275 125° Southeast 471 542 41,000  Level Los Angeles Center
12:00AM 34.8056 -119.8969 125° Southeast 474 545 41,000  Level Los Angeles Center
12:01AM 34.7294 -119.7639 125° Southeast 480 552 41,000  Level Los Angeles Center
12:02AM 34.6522 -119.6325 126° Southeast 479 551 41,000  Level Los Angeles Center
12:03AM 34.5669 -119.4906 126° Southeast 475 547 41,000  Level Los Angeles Center
12:04AM 34.4900 -119.3611 126° Southeast 475 547 41,000  Level Los Angeles Center
12:05AM 34.4133 -119.2306 125° Southeast 476 548 41,000  Level Los Angeles Center
12:06AM 34.3358 -119.1017 126° Southeast 475 547 41,000  Level Los Angeles Center
12:07AM 34.2586 -118.9731 126° Southeast 474 545 41,000  Level Los Angeles Center
12:08AM 34.1664 -118.8194 126° Southeast 472 543 41,000  Level Los Angeles Center
12:09AM 34.0897 -118.6919 126° Southeast 470 541 41,000 -480 Level Los Angeles Center
12:11AM 34.0136 -118.5667 126° Southeast 465 535 40,000 -1,020 Descending Los Angeles Center
12:12AM 33.9181 -118.4117 127° Southeast 476 548 38,800 -1,080 Descending Los Angeles Center
12:13AM 33.8147 -118.2836 134° Southeast 489 563 37,800 -2,100 Descending Los Angeles Center
12:14AM 33.7289 -118.1717 133° Southeast 475 547 34,600 -3,420 Descending Los Angeles Center
12:15AM 33.6356 -118.0517 133° Southeast 485 558 30,900 -3,240 Descending Los Angeles Center
12:16AM 33.5442 -117.9358 133° Southeast 482 555 28,000 -3,000 Descending Los Angeles Center
12:17AM 33.4558 -117.8244 134° Southeast 464 534 24,800 -3,420 Descending Los Angeles Center
12:17AM 33.4167 -117.7667 129° Southeast 451 519 23,100 -3,000 Descending Southern California TRACON
12:18AM 33.3706 -117.7181 139° Southeast 448 516 21,800 -2,400 Descending Los Angeles Center
12:19AM 33.2906 -117.6181 134° Southeast 420 483 19,200 -2,760 Descending Los Angeles Center
12:19AM 33.2667 -117.5833 129° Southeast 403 464 18,200 -2,820 Descending Southern California TRACON
12:20AM 33.1667 -117.5000 145° Southeast 378 435 15,300 -2,160 Descending Southern California TRACON
12:21AM 33.1106 -117.4486 143° Southeast 369 425 14,400 -1,860 Descending Los Angeles Center
12:22AM 33.0331 -117.3850 145° Southeast 349 402 12,200 -2,100 Descending Los Angeles Center
12:23AM 32.9578 -117.3236 146° Southeast 338 389 10,200 -1,560 Descending Los Angeles Center
12:24AM 32.8908 -117.2708 146° Southeast 308 354 9,100 -1,320 Descending Los Angeles Center
12:25AM 32.8339 -117.2081 137° Southeast 290 334 7,500 -1,560 Descending Los Angeles Center
12:26AM 32.7886 -117.1344 126° Southeast 281 323 6,000 -1,560 Descending Los Angeles Center
12:26AM 32.7667 -117.1167 146° Southeast 262 302 5,500 -840 Descending Southern California TRACON
12:27AM 32.7500 -117.0333 103° East 242 278 5,000 -780 Descending Southern California TRACON
12:28AM 32.7167 -117.0167 157° South 156 180 4,100 -1,440 Descending Southern California TRACON
12:29AM 32.7000 -117.0667 248° West 157 181 2,100 -1,320 Descending Southern California TRACON
12:30AM 32.7167 -117.1167 292° West 128 147 1,400 -720 Descending Southern California TRACON
12:31AM 32.7233 -117.1425 287° West 139 160 800 -600 Descending Los Angeles Center
12:32AM 32.7317 -117.1764 286° West 132 152 300 -540 Descending Los Angeles Center
12:34AM 32.7333 -117.1833 277° West  Level FlightAware Approximate